Terminal Aerodrome Forecast
Issued by NWS

Current Version | Previous Version | Graphics & Text | Print | Product List | Glossary On
Versions: 1 2 3 4 5 6 7 8 9 10 11 12 13 14 15 16 17 18 19 20 21 22 23 24 25 26 27 28
000
FTUS41 KILN 121100
TAFLUK
TAF
KLUK 121134Z 1212/1312 04007KT P6SM OVC035
      TEMPO 1212/1216 OVC028
     FM121800 02007KT P6SM OVC035
     FM130200 01005KT P6SM OVC025
      TEMPO 1302/1306 SCT025
     FM131100 32008KT P6SM SCT025 SCT100=

USA.gov is the U.S. government's official web portal to all federal, state and local government web resources and services.